Wind_Speed
71 71 72 71 71 70 70 70 71 71 71 71 71 71 71 71 71 71 71 71 71 71 71 71 72 73 74 74 75 76 77 77 78 78 79 80 82 83 84 86 86 86 86 85 85 83 79 78 77 76 75 73 72 72 73 73 71 69 68 67 66 65 65 63 60 58 58 57 54 53 50 49 49 46 43 43 43 42 45 45 42 40 40 39 39
73 73 73 73 72 72 71 71 71 72 72 72 73 73 73 73 73 73 73 73 72 72 72 72 72 73 74 75 75 77 77 78 79 79 79 80 82 83 85 86 87 87 88 88 87 87 85 82 81 80 78 77 76 75 73 74 74 71 69 69 69 67 66 66 64 61 61 60 57 53 53 53 52 50 48 47 46 47 49 49 46 45 45 44 44
73 73 73 73 73 73 73 72 72 72 72 73 73 74 74 75 75 75 75 75 75 74 74 74 75 75 75 76 76 77 78 79 80 80 80 81 82 83 85 86 87 88 89 90 90 90 89 87 86 85 83 80 80 80 77 76 76 73 71 71 71 69 67 68 68 65 64 64 58 55 57 58 56 53 51 50 50 51 52 52 49 49 49 48 47
73 73 73 73 73 73 73 73 73 73 73 73 74 74 75 76 76 77 77 77 77 77 77 77 77 77 77 78 78 78 79 80 80 81 81 82 83 84 85 86 87 88 90 91 92 92 92 91 90 90 89 86 84 84 83 81 78 76 75 75 75 72 68 69 69 67 68 67 61 57 58 61 60 56 54 52 53 54 55 54 53 54 54 53 53
74 74 74 74 74 74 74 73 73 73 74 74 74 75 76 77 77 78 78 78 79 79 79 79 79 79 79 79 80 80 81 81 81 82 83 84 85 85 86 87 88 89 90 91 93 93 93 93 93 93 93 91 89 88 88 86 83 81 80 78 79 78 74 71 70 69 70 68 64 59 59 61 62 60 58 56 57 58 58 58 59 59 58 57 58
77 76 76 76 76 75 75 75 75 75 75 75 75 76 77 77 78 79 80 80 81 81 81 81 81 81 81 81 81 82 82 82 82 83 84 86 87 88 89 89 89 90 91 91 92 94 94 94 95 96 95 94 94 93 93 91 89 87 85 82 82 84 82 77 74 72 72 71 67 62 59 61 62 62 62 60 60 61 62 62 62 62 61 61 61
80 80 79 79 79 79 78 78 78 78 77 77 78 78 78 79 79 80 81 82 82 82 83 83 83 83 83 83 83 83 83 84 84 85 86 87 88 89 90 91 92 91 92 92 93 93 94 95 96 97 97 96 96 96 96 96 94 93 90 87 85 86 85 83 79 76 75 74 71 65 60 62 64 64 64 63 62 63 64 63 64 64 64 64 62
84 84 83 82 82 82 82 81 81 81 80 80 81 81 81 81 81 82 83 83 84 84 84 85 85 85 85 85 85 84 84 85 86 87 88 88 89 90 91 92 93 93 93 94 94 94 95 95 96 97 97 97 98 98 98 98 97 97 95 92 90 88 86 86 84 80 78 77 75 69 64 65 67 67 66 65 64 64 65 65 67 67 66 65 63
87 87 86 86 85 84 84 84 83 83 83 83 83 83 83 83 83 84 84 85 85 86 86 86 86 87 87 87 87 86 86 86 88 89 90 90 90 91 91 92 93 94 95 95 96 96 96 96 96 96 97 98 99 100 100 99 99 99 98 97 95 91 88 89 88 84 82 80 78 74 69 67 69 69 67 67 67 68 68 68 68 67 66 65 64
89 89 89 88 88 87 86 86 85 85 85 85 85 85 85 85 85 86 86 87 87 88 88 88 88 88 89 89 88 88 88 88 90 91 92 92 92 92 92 93 93 93 94 95 96 97 98 98 97 97 97 98 99 100 100 100 99 99 100 99 98 95 92 92 91 88 87 85 82 78 74 72 72 71 70 70 70 70 70 70 69 67 66 66 66
90 90 90 90 90 90 89 88 87 87 86 86 86 86 87 87 87 88 88 89 89 90 90 90 90 90 90 90 90 90 90 90 92 93 94 94 94 94 94 94 94 93 93 94 95 97 98 98 98 98 98 98 99 100 100 101 100 100 100 100 100 97 95 95 95 92 90 90 88 83 78 77 76 74 74 73 73 72 72 71 70 69 68 68 68
92 92 92 92 92 92 91 90 89 88 88 88 88 88 89 89 89 89 90 90 91 91 91 91 92 92 92 92 92 92 92 93 94 95 96 97 97 96 96 95 95 94 94 94 94 96 97 98 99 99 98 98 99 100 101 101 101 100 101 101 100 98 96 97 97 95 93 94 93 87 81 79 79 78 77 77 76 76 75 73 71 70 70 70 69
92 92 92 93 93 93 92 92 91 91 91 91 91 91 91 91 90 91 91 91 92 92 93 93 93 93 93 93 93 93 94 95 96 97 97 98 99 98 98 97 96 96 95 95 95 96 97 98 98 99 99 99 99 100 100 101 101 101 102 102 101 99 98 98 98 97 97 98 96 91 85 83 83 83 81 81 80 79 78 76 74 72 72 72 70
90 90 91 91 91 91 91 91 91 91 92 92 92 92 92 92 92 92 92 92 93 93 94 94 94 94 94 95 95 95 95 96 98 99 99 100 100 100 99 99 98 97 97 97 97 97 98 98 99 99 99 100 100 99 99 100 101 102 102 102 101 100 99 99 98 98 98 98 97 94 89 85 85 87 87 86 83 81 80 79 76 73 73 72 70
85 85 86 87 87 87 87 88 88 89 90 90 91 92 92 92 92 93 92 92 93 94 94 94 95 95 95 95 96 96 97 98 99 100 101 102 102 101 100 99 98 98 98 98 98 99 99 100 100 100 100 101 101 100 100 100 100 101 101 101 101 101 100 100 99 99 98 97 97 97 93 89 87 88 89 89 85 83 82 79 76 73 73 73 71
79 79 80 81 81 81 82 82 82 84 85 87 88 88 89 90 90 91 91 91 92 92 93 93 94 95 96 96 97 97 98 100 101 101 103 104 104 103 101 100 98 97 97 98 99 99 101 101 101 101 101 101 101 101 102 102 101 100 100 100 101 101 101 100 100 99 99 98 97 97 96 93 91 91 91 91 88 86 85 82 77 75 74 73 71
74 75 75 76 75 76 76 76 77 79 80 81 82 83 84 84 85 85 85 86 87 88 89 89 90 92 93 94 96 96 98 100 101 102 103 104 104 103 102 100 98 97 97 98 99 100 101 102 102 103 102 102 102 102 102 102 102 101 100 100 99 99 98 98 99 99 99 98 98 99 98 95 93 93 94 93 91 89 88 85 81 78 77 75 73
71 71 71 71 71 72 72 72 73 73 74 75 75 75 75 75 75 76 76 78 79 80 81 82 83 85 87 90 91 92 94 96 98 99 100 101 102 102 100 98 96 96 96 98 100 101 102 103 103 103 103 103 103 103 103 102 101 102 102 101 99 98 97 97 97 98 99 99 100 101 100 97 96 96 96 95 93 91 89 86 83 81 79 77 75
68 68 67 67 68 68 68 68 68 68 68 68 67 66 66 66 66 67 67 68 69 70 71 72 74 77 80 82 84 86 87 89 91 92 94 96 97 96 95 93 92 93 94 97 99 101 102 103 104 104 105 105 105 105 103 101 101 101 101 100 99 98 97 97 97 98 99 100 100 101 100 99 98 98 97 96 94 92 90 87 85 83 81 78 75
64 64 64 65 65 65 64 63 63 62 61 61 60 59 60 60 60 60 61 61 61 62 64 65 67 70 72 74 75 77 78 79 82 84 85 87 88 88 87 86 85 87 90 92 95 98 100 101 102 103 105 106 107 107 105 102 101 102 101 99 99 99 99 99 99 99 99 99 99 100 100 100 99 98 96 95 94 92 89 86 85 84 81 79 76
60 61 62 62 62 61 60 59 57 57 56 55 55 56 56 55 56 56 55 55 56 57 59 60 61 62 64 65 66 67 69 70 73 75 76 78 79 78 77 77 78 80 83 85 88 91 93 95 97 99 102 104 106 106 105 103 103 103 101 99 99 100 101 101 99 98 98 98 98 99 100 100 99 98 96 95 93 91 88 85 85 84 80 78 76
58 59 60 60 59 57 55 55 54 53 53 53 53 54 53 52 52 51 51 52 53 54 54 54 54 56 57 57 57 58 61 63 65 67 68 68 69 68 68 69 70 72 75 77 80 83 86 88 91 94 98 100 102 104 103 102 103 103 101 99 99 101 102 101 99 98 98 98 98 99 99 98 98 98 96 94 93 91 89 86 85 83 80 77 76
57 59 59 57 56 54 53 52 52 51 51 51 51 50 49 48 48 47 48 48 49 49 49 48 48 49 50 49 49 52 54 55 57 59 60 59 60 60 60 62 64 66 68 71 74 77 79 81 84 88 92 94 96 98 98 99 100 101 99 99 100 101 101 100 99 98 98 97 97 98 98 98 97 96 95 94 93 92 90 87 85 83 80 77 75
57 58 57 55 53 52 51 50 49 49 49 49 47 46 45 44 44 44 44 45 45 45 44 43 43 43 43 43 44 46 47 48 50 51 52 52 52 53 54 56 59 60 63 66 68 71 72 74 77 82 84 86 87 89 90 92 94 95 95 95 97 99 99 98 97 97 97 97 96 96 96 96 96 95 94 93 93 91 88 86 84 82 79 76 74
57 56 54 52 51 50 49 48 46 46 46 44 43 42 42 42 42 41 40 39 40 41 40 38 38 38 38 38 39 40 41 42 43 44 44 44 45 46 49 51 53 55 57 60 62 64 66 67 70 73 75 76 78 80 82 84 87 87 88 88 90 92 93 94 94 95 95 96 95 94 93 93 93 93 93 92 91 88 86 84 83 81 79 77 76
55 54 51 50 49 48 47 45 43 43 42 41 40 40 40 39 38 37 35 35 36 37 36 35 34 34 34 34 35 36 37 37 38 39 39 39 40 42 44 46 47 48 51 53 55 56 58 60 62 65 67 68 70 73 75 77 79 79 79 79 81 83 85 87 88 89 91 92 92 92 92 90 90 90 91 90 88 86 84 84 83 81 80 80 78
54 52 49 47 46 45 44 42 41 40 39 39 38 38 37 36 33 32 31 32 34 34 33 32 31 31 31 32 33 34 35 36 36 36 36 36 38 39 40 42 43 44 46 48 49 50 52 54 56 59 61 63 65 67 68 69 69 69 69 71 73 75 78 80 81 83 85 87 88 89 89 88 86 87 88 88 87 84 83 84 83 82 82 82 79
52 49 46 44 43 42 41 40 39 38 37 37 36 35 33 31 29 28 29 31 32 32 31 30 30 30 31 32 32 33 34 34 35 35 35 35 36 38 39 40 40 42 44 46 47 48 50 51 54 56 58 59 59 60 60 61 61 61 63 65 67 69 71 72 74 76 78 81 83 85 85 84 83 84 86 87 86 84 83 83 82 81 83 82 78
49 45 43 42 41 40 39 38 37 36 35 35 33 31 29 27 26 27 29 30 30 30 30 30 30 30 31 32 32 32 33 33 33 34 34 34 35 36 37 38 39 41 43 45 45 46 48 50 52 53 54 55 55 55 56 56 57 58 60 62 63 65 66 66 68 70 72 75 78 80 81 81 80 82 85 86 85 84 83 82 82 83 83 81 76
45 42 41 41 40 38 37 36 35 34 33 32 30 28 27 26 25 27 28 29 28 28 29 29 30 30 31 32 31 31 32 33 34 35 35 35 34 35 36 36 37 39 41 42 43 45 47 49 51 51 52 52 52 53 54 54 56 57 59 60 62 63 63 63 64 66 69 71 74 76 76 77 78 80 83 84 84 83 83 83 83 83 81 78 75
42 40 39 39 38 37 35 33 32 31 30 29 28 26 25 25 25 26 27 27 26 27 28 29 30 31 31 31 31 31 32 33 35 36 36 35 35 35 36 36 36 37 38 40 42 44 46 48 49 50 50 51 51 52 53 54 55 57 58 59 60 61 60 61 62 64 66 68 70 72 73 74 76 77 79 82 83 83 83 83 82 82 80 77 75
40 39 38 37 37 35 33 31 30 29 28 27 26 25 24 24 25 26 26 25 25 27 28 29 29 30 31 31 31 31 31 32 33 34 34 34 34 34 34 34 34 35 36 39 42 44 46 47 48 49 49 49 49 50 52 54 56 57 57 57 58 59 59 59 60 62 64 65 67 69 71 72 73 74 77 80 82 83 83 82 81 80 78 75 74
39 37 36 36 35 33 30 29 28 27 26 26 25 24 23 23 24 25 24 24 25 26 27 28 28 29 30 30 30 29 30 30 32 34 34 35 35 35 35 35 35 35 37 40 42 45 47 49 50 50 49 47 47 48 50 53 55 56 55 55 56 58 58 58 59 60 62 64 65 67 69 70 71 72 75 78 81 82 82 81 79 77 75 73 72
37 35 34 34 33 30 28 27 26 26 25 25 25 23 22 23 24 24 23 23 24 25 26 27 27 27 28 28 28 28 29 30 32 35 37 38 39 38 38 38 38 38 40 41 42 45 48 51 52 51 50 48 46 47 49 52 54 54 53 54 56 57 57 57 58 59 62 63 65 66 68 69 70 71 74 78 80 81 80 77 75 72 71 71 71
35 34 33 32 30 27 26 25 25 25 25 25 24 22 22 23 23 23 22 23 23 24 24 24 24 25 26 27 27 28 29 30 33 35 38 40 41 41 41 41 41 41 41 41 42 45 49 51 51 50 50 48 47 48 49 50 51 52 52 53 55 56 56 56 57 60 62 64 65 67 68 68 68 70 74 77 78 77 76 72 70 69 70 72 72
34 33 32 30 27 25 24 25 25 25 25 24 23 22 22 23 23 23 22 22 22 21 21 22 22 23 24 25 25 26 27 29 31 33 36 39 41 43 43 43 43 43 43 43 44 46 49 49 49 48 48 49 49 48 48 48 48 49 50 52 54 54 55 56 57 59 62 64 66 67 67 67 68 70 74 75 74 72 69 66 65 67 71 73 72
32 32 30 28 25 24 24 25 25 25 25 24 24 23 23 23 23 23 21 20 20 19 19 19 20 21 21 22 22 22 23 25 27 29 32 35 38 40 41 42 43 43 43 43 43 44 45 45 45 44 46 48 47 45 44 44 45 46 48 50 51 52 53 55 56 58 60 62 63 64 65 66 69 72 73 72 70 68 65 64 66 69 71 70 68
31 31 29 26 23 23 24 25 25 26 25 25 24 24 23 23 23 23 21 19 18 17 16 17 18 18 18 18 18 18 18 20 22 24 27 30 33 35 37 38 39 39 39 38 38 39 40 40 40 41 43 44 43 42 42 42 43 44 45 47 48 49 51 52 54 56 58 60 61 62 64 66 68 69 69 68 67 67 66 67 67 67 67 66 63
30 30 28 25 23 24 25 26 26 27 26 25 25 25 24 23 23 23 21 19 17 16 15 16 16 15 14 15 15 15 16 17 19 21 23 25 28 30 31 32 33 33 33 33 33 34 35 35 37 39 40 40 40 39 39 40 40 41 42 42 43 45 47 49 51 53 55 57 58 59 60 62 63 65 66 67 67 67 66 66 65 64 64 62 59
30 29 27 25 24 25 27 27 27 27 27 26 26 25 24 23 23 23 21 18 16 14 14 14 14 13 13 12 12 13 13 14 16 18 20 22 24 26 27 28 28 29 29 30 30 31 32 34 36 37 37 37 36 36 36 36 37 38 39 40 41 43 44 46 48 49 52 54 55 57 58 59 61 63 64 65 65 65 64 63 63 63 61 58 57
29 29 27 25 26 27 28 28 28 28 27 27 26 26 25 24 23 23 20 17 15 14 13 13 13 12 11 10 10 11 12 12 13 15 17 18 21 22 23 25 27 28 29 30 31 32 34 35 36 36 35 35 35 36 36 36 36 37 38 39 40 41 43 45 46 47 49 51 53 54 56 58 59 59 60 61 61 61 60 61 61 61 59 58 59
29 29 28 27 27 29 29 29 29 29 28 27 27 26 25 24 23 23 20 17 15 14 13 13 12 11 9 9 9 10 10 11 12 13 14 16 18 20 23 26 29 31 34 36 37 37 37 37 37 36 36 35 35 35 36 36 36 37 38 39 39 40 42 43 44 44 45 47 49 50 52 53 54 54 56 57 57 57 58 60 61 60 60 60 62
30 30 29 28 29 30 31 31 30 29 28 28 27 27 25 24 24 23 20 17 15 15 14 13 12 10 9 8 8 9 10 10 12 14 15 17 19 22 25 29 32 35 37 39 41 41 40 39 39 38 37 36 35 35 35 37 38 38 38 38 39 39 39 39 39 40 41 43 45 47 49 50 52 53 55 56 57 58 60 61 61 60 61 62 64
30 30 30 30 31 31 32 32 31 30 29 28 28 27 26 24 24 24 21 18 16 16 15 14 12 10 9 9 9 10 11 13 14 17 19 21 23 26 29 32 34 36 38 39 41 42 41 40 39 38 36 35 35 35 37 39 40 39 39 38 39 39 38 38 39 40 41 43 44 46 49 51 54 56 57 58 60 61 61 61 60 60 62 64 66
31 31 31 31 32 33 33 33 32 31 30 29 28 28 27 26 25 24 22 19 18 18 17 16 14 12 11 12 12 13 15 16 18 20 23 27 29 30 32 33 34 36 38 39 39 40 41 40 38 36 36 37 38 39 39 40 41 41 40 40 41 41 41 41 41 42 44 46 48 50 53 55 57 58 60 60 61 61 62 62 61 61 63 65 67
31 31 32 33 34 35 35 34 33 32 31 29 29 29 28 27 27 25 23 21 20 20 19 18 16 16 16 16 17 19 20 21 22 24 27 30 32 33 33 33 33 34 35 37 38 38 38 38 38 38 39 41 44 46 46 45 44 43 42 42 43 43 42 42 42 44 47 50 52 55 56 58 59 60 61 61 61 61 61 62 62 63 64 66 67
32 32 33 34 36 36 36 36 35 33 32 30 30 30 30 29 29 27 25 23 23 23 22 21 21 21 21 21 22 23 25 25 26 27 28 31 33 34 35 34 34 33 33 34 35 35 34 35 39 44 47 49 50 50 49 49 49 48 47 46 46 44 43 43 43 46 49 52 54 56 57 58 59 60 59 59 60 60 62 63 63 64 65 66 67
33 33 34 36 37 38 38 37 36 35 33 32 31 31 32 32 31 30 27 26 26 26 25 25 25 26 27 26 26 27 28 28 29 29 29 30 32 35 36 37 38 38 37 35 35 34 34 37 43 50 54 55 53 51 50 50 51 51 50 49 47 45 44 45 47 49 52 53 54 55 56 57 57 57 58 58 60 62 64 65 65 65 65 66 67
34 34 35 37 39 39 39 38 37 36 35 33 32 33 34 34 34 33 30 29 29 29 28 28 29 30 31 31 31 31 30 30 30 30 30 30 31 33 36 37 39 39 39 38 36 36 38 43 49 54 57 57 55 53 52 53 53 51 50 50 48 47 48 50 53 54 55 55 55 56 57 58 58 58 59 60 62 63 65 65 65 65 66 67 67
36 35 36 37 40 41 41 40 39 37 36 35 34 34 35 36 37 36 34 32 32 32 32 32 33 33 33 34 34 34 33 33 32 32 32 32 32 32 33 35 37 38 39 39 39 40 43 49 55 58 59 57 56 54 54 54 54 54 53 52 51 51 51 52 53 54 54 55 56 58 59 59 60 60 61 62 63 65 65 66 67 67 68 69 69
37 37 37 38 41 43 43 42 40 39 37 36 35 36 37 39 40 39 37 36 36 36 36 36 37 37 36 36 36 35 35 35 34 33 33 33 33 34 35 36 39 40 41 42 44 47 51 55 59 61 60 57 56 56 56 55 54 54 54 54 54 53 53 53 53 54 54 55 57 57 58 59 59 60 61 63 65 66 67 68 69 70 70 71 71
Wind_Direction
255 256 256 256 256 255 254 253 252 252 251 251 251 250 250 249 248 248 247 247 246 246 246 245 245 245 244 244 244 243 243 242 242 242 241 240 239 239 239 239 239 239 239 239 240 239 236 235 234 232 230 229 229 231 234 237 238 241 245 246 247 249 250 250 248 247 249 251 250 252 254 255 255 255 254 254 256 259 262 265 269 272 275 277 281
256 256 256 257 257 256 255 254 253 253 252 251 251 251 250 250 249 249 248 248 247 246 246 246 245 245 245 244 244 244 243 243 242 242 242 241 240 240 239 239 239 239 240 239 239 240 238 237 237 237 234 230 229 230 231 235 238 239 242 244 246 247 248 249 249 248 248 250 250 250 251 252 253 254 254 255 257 259 262 265 269 271 273 275 278
257 257 257 257 257 256 256 255 254 254 253 252 252 251 251 250 250 250 249 249 248 247 246 246 246 245 245 245 244 243 243 243 243 242 242 242 242 241 240 240 239 239 239 240 239 239 239 238 237 238 238 235 233 232 231 232 236 239 240 240 241 243 245 247 249 248 248 248 247 246 249 251 252 253 254 256 258 260 262 265 268 270 272 274 277
257 257 257 257 256 256 256 255 255 254 254 253 253 252 252 251 251 250 250 250 249 248 247 246 246 245 245 245 245 244 243 243 243 243 242 242 242 243 242 241 240 239 239 239 240 239 239 239 238 238 239 239 238 237 236 234 233 235 237 237 237 239 244 246 247 248 248 247 245 244 246 250 252 252 253 255 257 259 261 264 266 268 271 273 275
258 258 258 257 257 257 256 256 255 255 254 254 253 253 252 252 251 251 251 250 250 249 249 248 247 246 245 245 245 245 244 244 243 243 242 242 242 242 243 242 242 241 239 239 239 239 239 239 239 238 238 239 240 240 241 239 236 234 234 235 236 239 242 245 245 246 247 247 245 243 244 249 252 252 252 253 255 258 261 263 265 267 270 272 274
259 259 259 259 258 258 257 257 256 256 255 254 254 253 252 252 252 251 251 251 250 250 250 249 248 247 246 246 245 245 245 245 244 243 242 242 241 241 242 242 242 242 241 240 239 239 239 238 239 239 239 239 239 240 242 243 242 240 237 236 237 240 242 245 245 246 246 247 245 243 242 246 250 252 253 253 254 257 260 263 265 267 269 270 272
261 260 260 260 259 259 259 258 257 257 256 255 254 254 253 252 252 251 251 251 250 250 250 250 249 248 248 247 246 246 246 245 245 244 243 242 242 241 241 241 242 242 242 242 240 239 239 238 239 239 239 239 239 239 240 242 244 244 243 241 239 240 242 246 247 247 247 248 248 245 242 244 247 249 251 254 255 257 260 262 263 265 267 269 271
262 261 261 261 260 260 259 259 258 258 257 256 255 255 254 253 252 251 251 251 250 250 250 250 249 249 249 248 247 247 246 246 246 245 244 243 242 242 241 240 241 241 242 242 242 241 240 239 238 239 239 239 239 239 239 240 242 244 245 245 243 242 243 246 247 247 247 249 250 248 244 244 246 247 249 253 255 257 258 259 261 263 266 269 271
262 262 262 262 261 261 260 259 259 258 258 257 256 256 255 254 253 253 252 251 251 250 250 250 249 249 249 249 248 248 247 246 246 245 245 244 243 242 242 241 240 240 241 241 242 242 242 240 239 238 238 239 239 239 240 240 240 241 243 244 245 245 245 246 247 247 247 248 249 249 247 246 247 248 249 251 254 255 257 259 261 264 266 268 270
261 262 262 262 262 261 261 260 260 259 259 258 258 257 256 255 254 254 253 252 251 251 250 250 249 249 249 249 249 248 247 246 246 246 245 244 243 243 242 242 241 241 240 240 241 242 243 242 241 239 238 238 239 239 240 240 240 240 242 243 244 244 245 246 247 247 247 247 247 247 247 247 248 249 250 251 253 254 257 259 262 265 266 267 269
262 262 262 262 262 262 262 261 261 260 260 259 259 258 257 256 256 255 254 253 252 252 251 250 250 249 249 249 249 249 248 247 246 246 245 244 244 243 242 242 242 242 241 241 240 241 242 242 242 241 240 239 239 239 239 240 240 240 241 242 242 243 244 246 247 247 247 248 248 246 245 246 248 249 249 251 252 253 255 257 260 262 264 266 267
262 262 263 263 263 263 263 262 262 261 261 260 260 259 258 257 256 256 255 254 253 253 252 251 251 250 250 250 250 249 249 248 247 246 246 245 244 244 243 242 242 242 242 241 241 241 241 241 242 242 241 240 240 239 239 239 240 240 240 241 242 242 242 243 245 247 247 248 248 247 245 245 247 248 249 250 251 252 253 255 257 259 261 264 266
263 263 263 263 263 263 263 263 263 262 262 261 261 260 259 258 257 257 256 255 255 254 254 253 252 252 251 250 250 250 250 249 249 248 247 246 245 244 243 243 243 242 242 242 242 242 241 241 241 241 242 241 241 240 240 239 240 240 240 240 241 241 241 242 243 244 246 247 248 248 246 245 246 247 248 248 249 251 252 254 255 257 259 261 264
263 263 263 264 264 264 264 264 264 263 263 262 262 261 261 260 259 258 257 257 256 256 255 255 254 253 253 252 251 251 251 250 250 249 248 247 246 245 244 243 243 243 243 243 243 243 242 242 241 241 241 241 241 241 240 240 240 239 240 240 240 240 240 241 242 243 244 246 247 248 246 244 245 246 247 248 249 251 253 254 256 257 258 260 262
262 263 263 264 264 264 264 264 264 264 264 263 263 262 262 261 261 260 259 258 258 257 257 256 256 255 255 254 253 252 252 251 251 250 249 249 248 246 245 244 243 242 243 243 243 243 243 243 242 241 241 240 240 240 240 240 240 240 240 240 240 239 239 240 241 242 243 244 246 247 246 244 245 246 248 248 249 251 253 254 254 255 256 258 260
262 263 263 263 263 263 263 264 264 263 263 263 263 263 262 262 261 261 261 260 259 259 258 258 257 256 256 255 254 253 253 252 251 251 250 250 249 248 246 245 244 243 243 243 243 243 243 243 243 243 242 241 240 240 239 239 240 240 240 240 240 240 239 239 240 241 242 243 244 246 246 245 245 247 248 249 249 250 251 252 252 254 255 257 259
262 262 262 263 263 263 263 263 263 263 262 262 262 262 262 261 261 261 260 260 260 259 258 258 258 257 257 256 255 254 253 253 252 251 251 251 250 249 248 246 245 244 244 244 244 243 243 243 243 243 242 242 241 240 239 239 239 239 239 239 240 240 240 240 240 240 241 242 243 244 245 245 245 246 247 248 248 249 250 251 252 254 255 256 258
262 262 262 263 263 263 263 263 263 262 262 262 262 262 262 262 261 260 260 259 259 258 258 257 257 256 255 255 254 254 253 253 253 252 252 252 252 251 250 248 247 246 245 244 244 243 242 242 242 242 242 242 241 241 240 238 238 238 238 239 239 240 240 240 240 239 239 240 241 243 244 244 244 244 246 247 247 248 249 251 252 254 255 256 257
263 263 263 263 263 263 263 263 263 263 264 264 265 265 264 263 262 261 260 259 259 258 257 256 255 254 253 253 254 253 253 253 253 253 253 253 252 252 251 250 248 247 245 244 243 242 242 241 241 240 240 241 241 241 240 239 238 238 237 237 238 239 239 239 239 239 238 238 239 241 243 244 244 245 246 247 248 248 249 250 251 253 254 255 257
263 263 263 263 263 264 264 265 266 266 267 268 268 267 266 265 264 262 261 260 259 258 256 255 254 253 253 252 252 253 252 252 252 252 251 251 252 252 251 250 248 246 244 242 242 241 240 240 240 239 239 239 240 240 239 239 239 238 237 236 236 237 238 238 238 238 238 238 238 240 241 243 244 245 246 247 248 249 249 250 251 251 252 254 255
264 263 263 264 265 266 267 269 270 270 271 271 270 269 267 266 264 264 263 262 260 258 257 255 255 254 253 252 252 252 251 251 250 250 250 250 250 250 249 248 246 244 243 241 241 240 240 239 239 239 238 238 239 239 238 238 238 238 238 236 236 236 236 237 237 238 238 238 238 239 240 241 243 244 245 246 248 249 249 249 250 251 251 253 254
263 264 264 265 267 269 271 273 274 274 274 273 272 270 268 267 265 265 264 262 260 259 258 257 256 255 254 252 251 250 249 248 249 249 249 249 249 248 247 246 244 243 241 240 240 239 239 238 238 238 238 238 238 238 238 238 238 238 238 237 236 236 236 236 237 237 238 238 238 239 239 240 241 243 244 245 246 247 248 248 249 250 250 251 252
263 264 266 268 271 273 274 276 276 276 275 273 271 270 268 267 265 264 262 261 260 259 258 257 255 254 253 251 249 248 247 246 247 247 247 246 246 245 244 243 242 240 239 239 238 238 237 237 236 237 237 237 237 237 237 237 238 238 237 237 237 237 237 237 237 237 238 238 238 238 239 239 240 241 242 244 245 246 246 247 248 249 249 249 250
263 265 267 270 273 275 276 277 276 275 273 271 270 269 268 266 264 262 260 260 259 258 257 255 253 252 251 249 247 246 246 245 245 245 244 243 243 242 240 239 239 238 237 237 236 236 235 235 235 236 236 236 236 237 237 237 237 237 236 236 237 237 237 237 237 237 238 238 238 238 238 239 239 240 241 242 244 245 246 247 248 248 249 248 249
263 265 268 271 273 275 276 276 274 272 270 269 269 267 265 263 261 260 259 258 257 256 254 252 250 249 248 247 246 245 244 243 243 242 241 239 238 237 236 236 235 235 235 235 235 234 234 233 233 234 235 235 235 235 235 235 236 236 236 235 236 237 237 237 237 237 237 238 238 238 238 238 238 239 240 241 242 243 245 246 246 246 247 247 247
263 266 269 271 273 274 275 274 273 271 269 268 266 264 262 260 258 258 256 254 252 252 250 248 247 246 246 245 244 244 243 242 240 240 238 236 234 233 233 233 233 232 233 233 233 233 232 232 232 233 233 233 232 232 232 233 234 234 234 235 235 236 236 236 236 236 236 236 237 237 237 237 236 237 238 239 240 242 243 243 244 244 245 246 246
263 266 269 270 272 273 273 272 271 269 267 265 263 261 259 258 256 254 252 249 248 248 247 245 244 244 245 245 244 244 243 243 242 241 240 238 236 235 234 234 233 232 232 232 231 231 230 230 230 231 231 230 230 230 231 232 232 233 233 234 234 234 235 235 235 235 235 235 235 235 235 235 235 235 235 236 237 239 240 241 243 244 245 246 247
262 266 269 270 271 272 272 270 268 266 264 262 259 258 257 255 252 249 246 245 245 245 245 244 243 244 244 244 244 244 244 245 245 245 244 241 240 239 237 236 235 234 233 232 231 230 230 229 229 229 229 229 229 229 230 230 231 231 231 232 232 233 233 233 233 233 234 234 234 234 234 234 233 233 233 233 234 236 237 239 241 243 244 246 247
263 266 268 270 271 271 270 268 265 263 260 258 256 255 253 250 246 242 241 241 242 243 243 243 243 242 242 243 243 243 244 246 247 247 246 243 240 238 237 236 234 234 235 234 233 232 232 232 231 231 231 230 230 229 229 228 229 229 229 230 230 231 230 230 230 231 231 231 231 232 232 232 231 231 231 231 232 233 235 237 239 241 244 245 246
263 266 268 269 270 269 267 264 262 259 256 254 252 251 248 244 239 237 237 239 240 241 241 242 242 242 242 243 243 243 244 245 246 246 246 243 240 238 237 235 232 232 233 234 235 234 234 234 234 234 233 232 231 229 228 228 228 228 228 228 228 228 228 227 227 227 228 228 228 228 228 228 229 230 229 229 229 231 233 236 238 241 243 245 245
263 265 267 268 268 267 264 261 258 254 251 249 248 246 242 238 235 234 234 236 237 238 239 240 242 243 245 246 246 246 245 244 244 244 243 242 239 236 234 233 232 231 231 232 233 234 234 235 235 235 234 233 232 230 229 228 228 227 227 226 227 227 226 225 224 224 224 225 225 225 225 226 227 228 228 228 228 229 232 235 237 240 242 244 245
262 264 266 267 266 264 261 258 253 249 246 245 243 240 236 232 231 231 231 233 236 239 241 242 245 247 249 249 248 247 245 243 241 239 237 234 232 230 229 229 229 229 230 230 232 233 234 235 235 235 234 233 231 230 228 227 227 227 226 225 226 226 225 224 222 222 221 221 222 222 222 223 224 225 226 226 227 228 231 233 236 239 242 243 245
261 263 264 264 262 260 257 253 247 243 242 241 239 235 230 227 228 228 229 232 237 241 244 246 248 250 251 250 248 246 243 240 237 234 230 227 224 225 227 228 227 228 229 229 230 232 233 234 234 233 233 231 230 229 227 226 226 226 225 225 225 225 224 222 221 220 220 219 218 219 219 221 222 223 223 224 226 228 230 233 236 239 241 243 245
259 261 262 260 258 256 252 246 241 238 237 236 235 230 225 223 226 228 229 234 239 244 246 248 248 249 249 248 246 243 240 238 235 232 229 227 225 226 228 229 228 228 229 229 228 229 231 233 233 232 230 229 227 227 225 225 225 225 223 222 223 223 223 222 220 219 218 217 216 216 217 218 219 220 221 223 225 228 230 232 235 237 240 242 244
258 259 258 255 254 252 246 240 235 233 233 232 231 227 221 222 227 230 233 238 242 245 246 246 244 244 244 245 245 242 239 238 237 234 231 230 229 230 230 231 230 230 229 228 228 228 230 232 233 231 228 225 223 223 223 222 222 221 220 220 220 221 221 220 219 218 217 216 215 214 215 216 217 218 220 222 224 227 229 231 233 236 238 240 243
257 256 254 251 250 246 239 233 230 229 229 229 228 224 220 223 230 233 236 241 244 243 242 242 241 241 243 245 246 244 241 238 237 234 232 230 229 230 230 231 231 231 230 228 228 229 231 233 233 229 224 221 220 220 220 220 219 219 218 218 218 219 219 218 217 217 216 215 215 214 214 214 215 217 219 221 223 225 227 229 231 234 237 240 242
254 253 250 248 245 239 233 227 225 225 226 226 226 223 220 225 233 236 239 242 243 239 239 242 242 243 244 246 246 245 243 240 237 234 231 228 227 227 228 229 230 230 230 230 230 230 231 232 231 226 220 216 216 217 217 216 216 215 215 216 217 217 217 217 216 215 215 215 214 214 213 213 214 216 217 219 220 221 223 226 229 234 238 241 243
251 250 247 244 239 232 227 223 221 221 222 223 224 222 222 227 235 238 240 241 239 236 240 246 246 246 247 248 247 247 247 246 242 237 232 228 225 224 225 226 227 228 229 229 229 229 228 227 223 217 212 211 212 212 212 211 211 211 213 214 215 216 216 216 215 214 214 213 212 212 212 214 215 216 217 217 219 220 223 226 230 234 238 241 243
248 246 244 239 233 227 222 219 218 219 220 222 223 222 223 228 235 239 240 239 234 233 241 248 249 249 250 251 251 251 251 249 245 239 233 228 225 223 223 224 224 224 224 223 222 220 218 213 207 203 202 204 206 206 206 206 207 208 210 212 213 214 214 213 213 213 212 211 210 210 211 212 214 214 215 217 219 222 225 228 231 235 238 241 243
245 243 241 235 228 223 219 216 216 217 219 221 223 223 224 229 233 237 238 236 232 233 242 247 249 250 251 252 254 256 253 248 242 235 229 225 223 220 219 218 217 215 213 210 207 203 198 194 191 192 195 198 200 200 201 203 205 207 208 208 208 209 209 208 208 208 209 208 207 206 207 208 211 213 216 219 222 224 226 228 232 235 238 241 242
243 241 238 231 224 220 218 215 215 216 218 221 223 224 225 228 231 234 234 231 229 234 241 244 245 247 249 253 257 256 248 238 230 223 218 216 215 213 210 208 204 200 195 190 185 181 180 180 182 186 189 192 194 196 198 201 204 204 204 203 202 202 203 202 201 202 203 204 203 203 205 208 211 215 218 220 223 225 227 229 232 235 238 240 241
240 238 235 228 222 220 217 215 214 215 217 220 223 224 225 227 229 230 228 225 225 232 237 238 239 242 246 251 251 243 232 221 212 204 200 199 200 198 196 193 189 185 179 174 170 170 173 176 179 182 186 189 194 197 198 199 198 197 197 195 194 195 196 196 195 195 197 198 200 202 205 208 211 214 217 219 222 224 226 229 231 234 237 239 240
237 236 233 226 221 219 218 215 214 214 217 220 222 224 225 225 225 225 223 220 222 227 229 229 231 234 236 236 231 220 210 198 189 182 178 178 179 180 180 179 178 175 172 169 167 168 172 176 179 180 184 189 193 195 195 193 190 187 187 187 186 185 185 186 186 187 189 192 195 198 202 206 209 212 215 218 221 223 226 229 231 234 236 237 239
235 234 231 225 221 219 218 217 214 213 216 219 221 223 224 223 221 221 218 216 218 221 220 219 221 221 216 209 202 193 184 175 170 166 163 161 164 167 170 172 171 169 169 170 171 171 173 176 179 181 184 186 188 188 188 187 183 178 177 178 177 174 174 175 178 181 184 188 193 198 203 207 210 213 216 219 222 225 228 231 233 235 236 237 241
233 231 229 224 220 218 219 218 215 213 215 218 220 222 222 219 217 217 215 213 214 215 212 210 208 204 196 186 177 170 165 160 158 158 158 157 159 163 167 170 170 170 170 172 174 175 175 177 179 180 181 180 177 175 175 176 174 171 170 171 170 170 172 175 179 182 187 193 199 205 209 211 214 216 219 221 224 228 231 233 234 235 236 239 243
232 229 226 223 219 218 218 218 216 214 214 216 219 221 220 215 212 212 213 212 211 209 206 202 196 188 182 176 167 160 156 153 153 155 157 157 157 160 164 167 170 170 171 172 175 177 179 180 179 176 174 172 170 168 168 169 168 168 169 171 172 173 176 181 186 192 198 203 208 211 213 215 217 220 222 225 228 231 233 234 235 236 238 241 244
231 228 224 221 219 217 218 218 217 215 214 215 218 220 218 212 207 208 210 210 208 205 202 197 189 180 175 172 166 159 155 153 153 155 157 158 158 160 162 164 165 166 169 172 175 178 182 183 180 174 169 168 169 171 171 172 172 172 173 175 176 177 180 184 191 198 204 208 211 214 216 219 221 223 226 228 230 232 234 235 236 238 240 243 246
230 227 223 220 218 217 217 218 217 215 214 214 216 218 216 209 204 205 207 208 206 203 199 195 188 179 173 170 167 163 159 157 157 158 161 163 164 164 165 167 168 169 172 176 180 183 184 183 181 175 172 171 174 176 177 178 178 178 178 179 180 183 187 192 198 204 208 211 213 216 219 221 224 226 227 229 231 232 234 236 238 240 243 246 249
229 226 223 219 217 217 217 218 217 216 215 214 215 216 215 208 203 203 205 206 203 200 198 194 189 183 178 174 171 169 167 166 166 167 168 171 173 174 175 176 177 178 180 182 185 186 184 182 180 178 176 176 178 180 182 183 184 184 185 185 187 191 196 201 205 209 212 214 216 218 220 222 225 227 228 230 231 233 236 238 241 243 246 248 251
228 226 223 219 216 215 217 218 218 216 215 215 215 215 213 208 203 202 204 205 202 199 197 194 192 189 185 181 179 177 176 176 177 177 178 179 181 185 187 187 187 187 187 187 186 184 182 181 181 180 180 181 183 184 186 188 190 191 193 194 195 199 203 207 211 214 217 218 220 221 222 224 226 228 230 232 234 236 239 241 243 245 248 250 253
228 225 223 219 216 214 215 218 218 217 216 215 215 214 212 208 203 202 203 205 202 198 196 195 194 193 192 190 188 186 186 185 185 186 186 186 186 187 189 191 192 191 188 185 183 182 181 182 183 184 185 186 188 189 190 192 194 197 200 202 203 205 208 212 215 217 220 222 223 224 226 227 229 231 233 235 237 240 242 244 246 248 250 252 254
Height
10537 10538 10538 10539 10541 10542 10544 10545 10546 10548 10550 10553 10555 10557 10558 10560 10562 10564 10565 10567 10569 10571 10574 10577 10579 10582 10584 10587 10589 10591 10593 10596 10599 10602 10605 10608 10611 10613 10616 10619 10623 10627 10629 10633 10636 10639 10644 10648 10650 10653 10657 10661 10663 10664 10666 10669 10673 10676 10678 10681 10684 10685 10687 10692 10697 10700 10700 10702 10707 10709 10710 10711 10710 10713 10716 10716 10717 10717 10715 10715 10719 10720 10719 10719 10719
10526 10528 10529 10530 10531 10532 10534 10535 10536 10538 10541 10543 10545 10546 10548 10550 10552 10553 10555 10557 10560 10562 10565 10567 10570 10572 10574 10576 10578 10581 10583 10586 10589 10593 10596 10598 10600 10603 10606 10609 10613 10617 10620 10623 10627 10630 10634 10639 10642 10643 10647 10652 10654 10657 10661 10662 10665 10670 10673 10675 10677 10679 10681 10683 10688 10693 10694 10695 10701 10706 10704 10702 10704 10708 10710 10711 10713 10713 10710 10711 10715 10715 10714 10715 10715
10517 10518 10519 10520 10521 10522 10523 10525 10527 10529 10531 10533 10535 10536 10538 10540 10541 10543 10545 10547 10550 10552 10554 10557 10559 10561 10563 10565 10567 10571 10573 10575 10579 10583 10586 10588 10590 10593 10595 10598 10603 10607 10610 10613 10616 10620 10625 10629 10633 10634 10637 10642 10646 10649 10653 10654 10658 10663 10666 10668 10669 10671 10674 10676 10679 10684 10686 10686 10694 10701 10698 10695 10698 10703 10705 10707 10708 10707 10705 10707 10710 10710 10709 10710 10710
10507 10508 10509 10510 10510 10512 10513 10515 10517 10519 10521 10522 10524 10526 10527 10529 10531 10533 10535 10537 10539 10541 10543 10546 10548 10550 10553 10554 10557 10560 10562 10565 10568 10572 10575 10578 10580 10582 10584 10587 10592 10595 10599 10602 10605 10609 10615 10619 10623 10625 10628 10633 10637 10640 10643 10646 10651 10655 10658 10660 10662 10664 10666 10668 10672 10675 10676 10678 10686 10693 10692 10689 10692 10697 10700 10702 10702 10701 10701 10703 10705 10704 10704 10705 10705
10496 10498 10499 10500 10500 10502 10504 10505 10507 10508 10510 10512 10514 10515 10517 10518 10521 10523 10524 10526 10527 10529 10531 10534 10537 10540 10542 10544 10546 10548 10551 10555 10558 10561 10564 10566 10569 10571 10573 10576 10579 10583 10587 10591 10594 10598 10603 10609 10613 10615 10618 10624 10629 10631 10633 10637 10642 10646 10648 10652 10655 10657 10658 10660 10664 10666 10667 10671 10678 10684 10687 10685 10687 10691 10694 10696 10696 10695 10696 10698 10699 10699 10699 10700 10700
10485 10487 10489 10489 10490 10492 10493 10494 10496 10497 10499 10501 10503 10504 10506 10508 10510 10511 10512 10514 10515 10518 10520 10523 10526 10528 10530 10533 10535 10537 10540 10544 10547 10550 10552 10554 10557 10559 10561 10564 10567 10570 10574 10578 10582 10587 10592 10598 10601 10604 10609 10615 10619 10622 10624 10627 10632 10635 10640 10645 10648 10649 10650 10652 10654 10656 10659 10664 10668 10675 10681 10682 10682 10684 10686 10689 10692 10691 10691 10693 10693 10693 10693 10693 10694
10474 10475 10477 10478 10479 10481 10482 10483 10484 10486 10488 10490 10491 10492 10494 10496 10498 10499 10500 10502 10504 10506 10509 10511 10514 10516 10518 10521 10524 10527 10530 10533 10536 10538 10540 10542 10544 10547 10549 10552 10555 10559 10563 10566 10571 10576 10581 10586 10590 10594 10599 10605 10609 10612 10615 10618 10622 10625 10630 10637 10639 10641 10644 10645 10646 10649 10651 10654 10659 10668 10675 10675 10675 10677 10679 10682 10686 10687 10687 10687 10686 10686 10686 10687 10689
10462 10463 10465 10466 10468 10469 10470 10471 10473 10474 10476 10478 10479 10480 10483 10484 10486 10487 10489 10491 10493 10495 10497 10499 10502 10504 10506 10508 10512 10516 10519 10522 10524 10525 10527 10529 10532 10535 10537 10541 10545 10548 10552 10556 10559 10564 10569 10574 10579 10584 10589 10594 10597 10601 10605 10609 10613 10615 10620 10625 10628 10634 10639 10637 10637 10641 10644 10646 10651 10659 10666 10667 10666 10670 10674 10676 10679 10681 10680 10679 10678 10679 10681 10682 10684
10450 10451 10453 10454 10455 10456 10458 10460 10461 10463 10464 10466 10467 10468 10471 10472 10474 10475 10477 10478 10480 10482 10484 10487 10489 10491 10493 10496 10500 10504 10508 10510 10511 10511 10514 10516 10520 10523 10526 10529 10533 10537 10541 10545 10548 10552 10556 10561 10568 10573 10577 10581 10585 10589 10593 10598 10604 10607 10610 10614 10618 10626 10631 10629 10629 10634 10637 10639 10643 10649 10657 10660 10659 10662 10668 10670 10671 10671 10671 10671 10672 10674 10676 10677 10678
10438 10440 10441 10442 10443 10444 10446 10448 10449 10451 10452 10453 10455 10456 10458 10459 10461 10462 10464 10465 10467 10469 10471 10474 10476 10479 10481 10484 10487 10491 10495 10498 10498 10498 10500 10504 10507 10511 10514 10518 10522 10526 10530 10534 10538 10541 10544 10548 10555 10561 10566 10570 10573 10578 10583 10587 10594 10598 10600 10604 10609 10616 10621 10621 10621 10626 10628 10630 10634 10641 10648 10650 10650 10654 10658 10659 10661 10663 10665 10666 10667 10669 10671 10671 10671
10427 10428 10428 10429 10430 10431 10433 10435 10437 10439 10440 10441 10442 10443 10444 10445 10447 10448 10450 10451 10453 10456 10458 10461 10463 10466 10469 10472 10474 10478 10481 10484 10484 10484 10487 10490 10494 10498 10502 10506 10510 10514 10519 10524 10527 10530 10533 10537 10542 10548 10554 10559 10563 10567 10571 10575 10582 10588 10590 10594 10598 10606 10613 10612 10612 10618 10621 10620 10624 10634 10640 10642 10643 10646 10648 10650 10653 10656 10658 10659 10661 10663 10664 10664 10665
10415 10416 10416 10417 10418 10419 10420 10422 10425 10426 10427 10428 10428 10429 10430 10431 10432 10434 10436 10438 10440 10442 10444 10447 10450 10452 10456 10459 10461 10465 10467 10469 10470 10471 10473 10476 10480 10485 10490 10494 10499 10503 10508 10512 10515 10519 10522 10525 10530 10535 10542 10547 10551 10554 10559 10564 10571 10576 10579 10582 10587 10595 10603 10603 10604 10610 10612 10610 10614 10625 10635 10637 10636 10638 10640 10642 10645 10647 10649 10653 10655 10657 10658 10658 10660
10403 10403 10403 10404 10405 10406 10407 10409 10411 10412 10413 10414 10414 10415 10416 10417 10419 10420 10422 10424 10426 10428 10430 10432 10436 10438 10442 10445 10448 10451 10453 10454 10455 10456 10459 10462 10465 10471 10477 10482 10487 10492 10496 10500 10504 10507 10510 10514 10518 10523 10529 10534 10537 10542 10548 10553 10559 10563 10567 10571 10577 10585 10591 10594 10597 10600 10601 10602 10607 10617 10626 10629 10627 10629 10631 10633 10636 10639 10642 10645 10649 10651 10651 10652 10654
10390 10390 10391 10391 10392 10393 10394 10396 10397 10398 10399 10399 10400 10401 10402 10403 10405 10406 10408 10411 10412 10414 10416 10418 10421 10424 10427 10431 10433 10436 10438 10438 10439 10441 10443 10446 10450 10456 10463 10469 10475 10480 10484 10488 10492 10495 10498 10501 10506 10511 10516 10520 10524 10530 10536 10541 10545 10550 10555 10560 10567 10575 10579 10583 10588 10591 10592 10595 10599 10605 10614 10619 10618 10619 10620 10623 10629 10634 10635 10638 10642 10644 10646 10647 10649
10378 10378 10378 10378 10379 10381 10382 10383 10384 10385 10385 10385 10386 10387 10387 10389 10390 10392 10394 10396 10398 10400 10401 10404 10407 10409 10412 10415 10418 10421 10422 10422 10423 10424 10426 10429 10433 10440 10448 10455 10461 10468 10472 10475 10480 10483 10485 10488 10493 10498 10502 10506 10512 10518 10523 10527 10532 10537 10543 10549 10555 10562 10567 10571 10577 10582 10584 10588 10590 10592 10601 10609 10610 10610 10611 10616 10624 10628 10628 10631 10635 10637 10638 10640 10643
10367 10366 10365 10365 10367 10369 10370 10371 10372 10372 10372 10371 10372 10373 10373 10374 10376 10377 10380 10382 10383 10385 10387 10389 10392 10393 10395 10397 10401 10404 10404 10404 10406 10408 10410 10412 10415 10423 10432 10440 10447 10455 10460 10462 10466 10469 10472 10475 10480 10484 10489 10494 10499 10505 10509 10514 10519 10525 10532 10538 10543 10548 10555 10562 10569 10573 10576 10580 10582 10583 10589 10597 10601 10602 10603 10608 10616 10618 10619 10623 10627 10629 10631 10633 10636
10355 10355 10354 10354 10356 10358 10359 10360 10360 10359 10359 10358 10359 10359 10360 10361 10363 10365 10367 10368 10369 10371 10373 10375 10376 10377 10378 10379 10382 10386 10387 10387 10388 10391 10393 10395 10399 10406 10416 10425 10433 10442 10447 10449 10451 10455 10458 10462 10466 10470 10475 10481 10486 10490 10495 10501 10507 10514 10520 10526 10531 10538 10546 10554 10559 10563 10567 10571 10572 10573 10578 10586 10591 10593 10594 10598 10605 10609 10611 10616 10620 10622 10623 10626 10630
10343 10343 10344 10345 10346 10347 10348 10348 10348 10347 10347 10346 10347 10348 10348 10350 10351 10353 10355 10355 10356 10357 10359 10361 10361 10361 10361 10362 10364 10368 10371 10371 10372 10375 10378 10380 10384 10391 10400 10410 10420 10427 10432 10434 10435 10439 10443 10446 10450 10456 10462 10467 10471 10475 10481 10489 10496 10503 10508 10514 10522 10530 10537 10543 10547 10552 10557 10560 10561 10563 10569 10576 10580 10582 10584 10589 10596 10601 10605 10609 10613 10614 10616 10619 10623
10332 10333 10335 10335 10336 10337 10337 10337 10337 10337 10337 10336 10337 10338 10338 10339 10341 10341 10342 10343 10344 10345 10346 10347 10347 10345 10346 10348 10351 10354 10357 10357 10358 10361 10364 10366 10370 10377 10385 10395 10404 10409 10413 10416 10417 10421 10426 10430 10435 10442 10447 10451 10455 10460 10467 10477 10484 10489 10496 10504 10513 10520 10525 10530 10534 10539 10544 10547 10551 10555 10560 10564 10568 10572 10577 10582 10587 10593 10598 10602 10604 10607 10609 10612 10616
10322 10324 10325 10326 10326 10327 10327 10328 10328 10328 10328 10327 10328 10328 10328 10329 10330 10331 10331 10333 10334 10334 10333 10333 10333 10333 10334 10338 10340 10342 10345 10346 10346 10348 10351 10353 10357 10364 10372 10380 10386 10389 10392 10397 10399 10403 10409 10414 10420 10427 10431 10435 10440 10445 10455 10465 10471 10475 10484 10495 10502 10508 10512 10516 10520 10526 10531 10537 10542 10547 10550 10554 10559 10564 10569 10574 10579 10585 10591 10594 10595 10598 10602 10606 10609
10314 10315 10316 10316 10317 10318 10319 10319 10320 10319 10319 10319 10318 10318 10318 10319 10320 10321 10321 10322 10322 10322 10322 10322 10323 10324 10325 10328 10331 10332 10334 10335 10334 10336 10340 10343 10347 10354 10360 10365 10369 10372 10376 10380 10384 10388 10395 10401 10406 10411 10415 10420 10425 10432 10442 10452 10457 10462 10473 10483 10490 10494 10497 10501 10509 10516 10522 10528 10534 10538 10541 10546 10551 10556 10560 10566 10572 10577 10582 10585 10585 10589 10596 10601 10601
10306 10306 10307 10307 10309 10310 10311 10311 10311 10311 10310 10310 10309 10309 10309 10310 10311 10311 10312 10312 10312 10312 10312 10314 10315 10316 10317 10319 10322 10323 10323 10324 10325 10327 10331 10335 10339 10344 10349 10352 10355 10358 10363 10367 10371 10376 10382 10388 10393 10396 10400 10406 10412 10419 10430 10439 10444 10451 10462 10471 10477 10479 10482 10490 10501 10508 10513 10519 10525 10529 10533 10539 10543 10547 10553 10559 10564 10568 10572 10575 10577 10582 10590 10593 10593
10297 10298 10298 10300 10301 10302 10304 10304 10303 10303 10302 10301 10301 10300 10301 10302 10302 10303 10303 10303 10303 10304 10305 10307 10308 10308 10309 10311 10313 10313 10314 10316 10318 10320 10323 10327 10331 10335 10339 10341 10344 10348 10352 10355 10359 10363 10369 10375 10379 10382 10386 10394 10401 10409 10419 10427 10432 10440 10451 10459 10463 10466 10472 10482 10491 10498 10504 10510 10516 10520 10525 10531 10535 10541 10547 10551 10555 10559 10563 10567 10571 10575 10580 10584 10586
10290 10290 10292 10293 10295 10296 10296 10296 10296 10295 10294 10293 10293 10293 10293 10294 10294 10295 10296 10296 10296 10297 10298 10300 10301 10301 10302 10304 10305 10306 10308 10310 10311 10313 10317 10321 10324 10327 10330 10332 10335 10339 10342 10345 10349 10353 10359 10364 10368 10371 10377 10385 10393 10400 10409 10415 10420 10429 10440 10446 10450 10455 10463 10473 10480 10487 10493 10499 10505 10511 10517 10522 10528 10534 10539 10543 10547 10551 10556 10561 10564 10567 10571 10576 10578
10283 10284 10286 10288 10289 10289 10289 10289 10289 10288 10286 10286 10286 10287 10287 10287 10287 10288 10289 10290 10290 10290 10291 10293 10294 10295 10296 10298 10299 10300 10302 10304 10306 10308 10311 10315 10318 10320 10322 10325 10328 10332 10335 10337 10341 10345 10351 10356 10360 10363 10370 10378 10384 10391 10398 10404 10410 10419 10428 10435 10441 10447 10455 10462 10469 10476 10482 10488 10495 10501 10507 10513 10520 10526 10530 10535 10540 10545 10549 10553 10555 10558 10562 10566 10568
10277 10278 10281 10282 10283 10283 10283 10282 10281 10280 10280 10280 10281 10281 10281 10281 10282 10283 10284 10284 10284 10284 10285 10287 10289 10290 10291 10292 10294 10295 10296 10298 10300 10303 10306 10309 10312 10314 10316 10319 10322 10326 10328 10331 10335 10340 10344 10349 10353 10357 10363 10369 10375 10381 10388 10394 10401 10410 10419 10426 10433 10439 10445 10452 10458 10465 10471 10477 10484 10490 10496 10503 10511 10517 10522 10527 10532 10538 10542 10543 10544 10549 10553 10556 10560
10271 10273 10275 10276 10277 10276 10276 10276 10275 10275 10275 10275 10275 10275 10275 10276 10277 10278 10278 10278 10278 10279 10280 10282 10284 10286 10287 10288 10289 10290 10292 10294 10296 10298 10301 10304 10306 10309 10311 10314 10317 10320 10323 10325 10329 10333 10337 10341 10345 10349 10354 10360 10366 10373 10380 10388 10396 10404 10412 10418 10424 10428 10433 10440 10446 10452 10459 10466 10473 10480 10486 10494 10501 10508 10514 10519 10524 10529 10532 10532 10535 10541 10545 10548 10553
10266 10268 10270 10271 10271 10270 10270 10270 10270 10270 10270 10270 10270 10271 10271 10272 10273 10273 10273 10273 10274 10275 10277 10279 10280 10281 10282 10283 10285 10287 10288 10290 10292 10294 10297 10299 10301 10304 10306 10309 10312 10314 10316 10319 10323 10327 10331 10335 10338 10342 10347 10353 10360 10368 10375 10382 10389 10397 10403 10408 10412 10417 10423 10429 10436 10443 10450 10457 10464 10471 10477 10485 10492 10498 10504 10509 10515 10520 10522 10524 10528 10534 10537 10540 10547
10261 10263 10265 10265 10265 10265 10264 10265 10265 10266 10265 10266 10266 10267 10267 10268 10269 10269 10269 10269 10270 10272 10273 10275 10276 10277 10278 10279 10281 10283 10285 10287 10288 10290 10292 10294 10296 10299 10301 10304 10307 10309 10311 10314 10318 10322 10326 10329 10333 10338 10343 10349 10355 10362 10368 10375 10381 10387 10392 10397 10402 10407 10414 10421 10427 10434 10441 10447 10453 10460 10468 10476 10483 10489 10494 10501 10506 10510 10513 10516 10521 10525 10528 10533 10540
10256 10259 10260 10259 10259 10260 10260 10261 10261 10261 10261 10261 10262 10263 10264 10264 10265 10265 10265 10266 10267 10269 10270 10271 10272 10273 10274 10276 10278 10280 10282 10283 10284 10285 10287 10289 10292 10294 10297 10300 10303 10304 10307 10310 10314 10317 10321 10324 10328 10333 10338 10344 10350 10356 10361 10368 10373 10378 10383 10388 10392 10398 10405 10411 10418 10424 10430 10436 10443 10450 10459 10467 10473 10479 10485 10492 10498 10501 10504 10508 10513 10517 10522 10528 10534
10252 10254 10254 10254 10254 10255 10256 10257 10257 10257 10257 10257 10258 10259 10260 10261 10262 10262 10262 10264 10265 10266 10267 10268 10269 10270 10271 10273 10274 10276 10278 10279 10280 10281 10283 10285 10287 10289 10292 10295 10298 10301 10304 10307 10310 10312 10315 10319 10323 10328 10333 10338 10344 10350 10355 10360 10365 10369 10374 10380 10385 10391 10398 10403 10409 10415 10421 10428 10435 10443 10451 10458 10464 10470 10478 10485 10490 10492 10496 10501 10506 10511 10516 10522 10526
10248 10249 10249 10250 10250 10251 10252 10252 10252 10252 10253 10253 10254 10256 10257 10258 10259 10259 10260 10261 10262 10263 10264 10265 10266 10267 10267 10269 10270 10272 10273 10274 10275 10276 10278 10280 10283 10285 10288 10290 10294 10297 10300 10303 10305 10307 10310 10314 10317 10322 10327 10332 10338 10343 10348 10353 10357 10362 10368 10374 10380 10385 10390 10396 10401 10407 10413 10420 10428 10436 10443 10450 10457 10464 10471 10477 10480 10483 10488 10495 10500 10505 10510 10515 10520
10243 10244 10245 10245 10246 10247 10248 10248 10248 10249 10249 10250 10251 10253 10254 10255 10256 10257 10258 10259 10260 10260 10261 10262 10263 10263 10264 10264 10266 10267 10268 10270 10271 10272 10274 10276 10279 10281 10283 10286 10290 10293 10296 10298 10300 10303 10305 10308 10312 10316 10321 10326 10331 10336 10342 10346 10351 10356 10363 10369 10374 10378 10383 10389 10395 10401 10408 10414 10421 10428 10436 10442 10449 10456 10463 10467 10471 10476 10483 10489 10495 10500 10505 10510 10513
10238 10239 10240 10241 10241 10242 10244 10244 10244 10245 10246 10247 10248 10250 10252 10253 10253 10254 10256 10257 10257 10257 10258 10259 10260 10260 10260 10260 10261 10263 10264 10265 10266 10268 10270 10272 10274 10277 10279 10282 10285 10288 10290 10293 10296 10298 10300 10302 10305 10310 10315 10321 10326 10331 10336 10341 10346 10352 10357 10363 10367 10372 10378 10385 10391 10397 10402 10408 10415 10422 10429 10435 10442 10449 10455 10460 10465 10471 10478 10485 10491 10496 10500 10503 10505
10233 10235 10236 10236 10237 10239 10239 10240 10241 10242 10243 10244 10246 10248 10249 10250 10251 10252 10253 10254 10254 10255 10255 10256 10257 10257 10256 10257 10257 10259 10260 10261 10262 10263 10265 10268 10270 10273 10275 10278 10280 10283 10286 10288 10291 10293 10294 10297 10300 10305 10310 10316 10321 10326 10330 10335 10341 10346 10352 10357 10362 10367 10374 10380 10386 10392 10397 10403 10409 10415 10422 10429 10437 10444 10448 10453 10459 10467 10474 10481 10486 10490 10493 10495 10497
10229 10230 10231 10232 10234 10235 10236 10237 10238 10239 10240 10242 10244 10245 10247 10248 10249 10250 10251 10251 10252 10252 10253 10253 10253 10253 10253 10253 10254 10255 10256 10256 10257 10258 10260 10263 10265 10268 10270 10272 10275 10277 10280 10283 10285 10287 10289 10293 10296 10301 10306 10311 10316 10321 10326 10332 10337 10343 10348 10352 10357 10363 10369 10375 10381 10387 10393 10399 10405 10410 10418 10426 10433 10437 10442 10449 10457 10464 10471 10476 10480 10483 10485 10487 10490
10224 10225 10227 10228 10230 10231 10232 10233 10234 10236 10237 10239 10241 10243 10245 10246 10247 10248 10248 10249 10249 10250 10250 10250 10250 10250 10250 10250 10251 10251 10251 10252 10252 10254 10255 10257 10259 10262 10264 10267 10269 10272 10274 10277 10280 10282 10285 10289 10293 10298 10302 10307 10313 10319 10324 10330 10335 10340 10345 10349 10355 10360 10366 10371 10377 10383 10389 10396 10403 10410 10417 10423 10426 10431 10438 10446 10453 10460 10465 10469 10473 10476 10478 10481 10484
10219 10220 10222 10225 10227 10228 10229 10230 10231 10233 10234 10236 10238 10241 10243 10244 10245 10245 10246 10246 10247 10248 10248 10247 10247 10247 10248 10247 10247 10247 10247 10247 10248 10249 10250 10252 10254 10257 10259 10262 10264 10267 10270 10272 10275 10279 10282 10285 10290 10295 10300 10306 10312 10318 10323 10328 10333 10338 10342 10347 10353 10358 10363 10369 10375 10381 10387 10393 10401 10408 10413 10418 10423 10430 10438 10444 10449 10455 10460 10464 10467 10470 10472 10475 10479
10215 10216 10218 10221 10223 10224 10225 10226 10228 10230 10232 10233 10236 10238 10240 10242 10242 10243 10243 10244 10245 10245 10245 10245 10245 10245 10245 10244 10244 10244 10243 10244 10244 10245 10246 10248 10250 10252 10255 10257 10260 10263 10266 10268 10272 10275 10278 10283 10288 10293 10299 10305 10311 10317 10322 10327 10331 10336 10340 10345 10351 10356 10361 10367 10373 10379 10385 10392 10399 10405 10411 10416 10423 10430 10435 10441 10446 10451 10456 10459 10462 10464 10466 10470 10475
10210 10212 10214 10217 10219 10220 10221 10223 10225 10227 10229 10231 10233 10235 10237 10239 10240 10240 10241 10242 10243 10243 10243 10243 10243 10243 10242 10242 10241 10241 10240 10241 10241 10242 10243 10245 10247 10249 10251 10254 10257 10260 10262 10265 10269 10273 10277 10283 10288 10294 10300 10306 10311 10316 10321 10326 10330 10335 10339 10344 10348 10353 10359 10364 10370 10376 10383 10389 10396 10402 10409 10415 10421 10427 10433 10438 10443 10447 10451 10454 10456 10458 10462 10467 10471
10206 10208 10211 10213 10215 10216 10218 10219 10222 10224 10226 10228 10230 10233 10235 10237 10238 10238 10239 10240 10241 10241 10241 10241 10241 10241 10240 10240 10239 10239 10239 10239 10239 10239 10241 10242 10244 10246 10249 10251 10254 10257 10260 10264 10269 10274 10279 10284 10290 10296 10301 10306 10311 10316 10320 10324 10329 10333 10338 10342 10346 10351 10356 10361 10367 10373 10380 10387 10394 10400 10407 10413 10419 10425 10430 10434 10438 10442 10445 10448 10451 10454 10458 10462 10464
10203 10204 10206 10209 10211 10213 10214 10216 10219 10221 10223 10226 10228 10230 10232 10235 10236 10236 10237 10238 10239 10239 10240 10240 10240 10240 10239 10239 10239 10238 10238 10238 10238 10239 10240 10241 10243 10245 10248 10250 10253 10256 10260 10264 10269 10275 10281 10286 10291 10296 10302 10306 10311 10315 10319 10323 10327 10332 10336 10340 10345 10350 10355 10361 10366 10372 10379 10386 10393 10400 10406 10411 10417 10422 10426 10430 10434 10437 10440 10442 10445 10450 10454 10456 10458
10199 10200 10203 10205 10207 10209 10211 10213 10216 10218 10221 10223 10225 10228 10230 10232 10234 10235 10235 10236 10237 10238 10238 10239 10239 10239 10239 10239 10238 10238 10238 10238 10238 10239 10240 10242 10244 10246 10249 10252 10255 10259 10262 10267 10271 10276 10282 10287 10292 10297 10302 10306 10310 10315 10319 10323 10326 10331 10335 10340 10345 10350 10356 10362 10368 10373 10380 10386 10392 10398 10404 10409 10413 10418 10422 10425 10428 10431 10433 10436 10440 10445 10448 10449 10451
10195 10197 10199 10202 10204 10206 10208 10210 10213 10216 10218 10220 10223 10225 10228 10230 10232 10233 10234 10235 10236 10237 10237 10238 10238 10239 10239 10239 10239 10239 10239 10239 10239 10240 10241 10243 10246 10249 10252 10255 10259 10263 10266 10270 10274 10278 10283 10289 10293 10298 10302 10306 10311 10315 10320 10323 10327 10331 10336 10341 10346 10351 10356 10362 10368 10374 10380 10385 10391 10396 10401 10405 10409 10413 10416 10419 10422 10425 10427 10431 10435 10439 10441 10442 10443
10192 10194 10196 10199 10201 10203 10205 10207 10210 10213 10215 10218 10220 10223 10225 10228 10230 10231 10232 10233 10234 10235 10237 10237 10238 10239 10239 10239 10240 10240 10240 10241 10241 10243 10244 10246 10249 10252 10256 10260 10263 10266 10270 10274 10277 10281 10285 10290 10295 10299 10303 10307 10311 10316 10321 10325 10329 10333 10337 10342 10347 10351 10357 10363 10368 10374 10379 10384 10388 10392 10396 10399 10403 10407 10410 10413 10416 10419 10422 10425 10429 10432 10434 10436 10438
10188 10190 10192 10195 10197 10200 10202 10204 10207 10210 10212 10215 10218 10220 10222 10225 10227 10229 10230 10232 10233 10235 10236 10237 10238 10239 10240 10240 10241 10242 10242 10243 10244 10246 10248 10250 10252 10255 10259 10263 10266 10270 10273 10277 10281 10284 10288 10292 10296 10300 10304 10308 10312 10316 10320 10325 10329 10334 10340 10344 10349 10353 10357 10363 10368 10372 10376 10380 10383 10386 10390 10394 10397 10401 10404 10408 10411 10414 10417 10421 10424 10427 10429 10431 10432
10184 10186 10189 10191 10194 10196 10198 10200 10203 10206 10209 10212 10214 10217 10220 10222 10224 10227 10228 10230 10232 10234 10235 10237 10238 10239 10240 10242 10242 10243 10244 10246 10248 10250 10252 10254 10256 10259 10262 10266 10270 10273 10277 10280 10284 10287 10290 10294 10297 10300 10305 10310 10314 10317 10321 10325 10329 10333 10338 10343 10347 10351 10356 10360 10365 10368 10371 10374 10378 10381 10385 10389 10393 10397 10401 10404 10408 10411 10413 10415 10418 10421 10424 10426 10428
10180 10182 10185 10188 10190 10193 10195 10197 10200 10203 10205 10208 10211 10214 10217 10219 10222 10224 10226 10228 10230 10232 10234 10236 10238 10239 10240 10242 10244 10245 10246 10248 10250 10253 10255 10258 10260 10263 10265 10268 10272 10275 10279 10282 10285 10289 10292 10296 10299 10302 10305 10310 10314 10319 10323 10326 10330 10333 10337 10341 10346 10350 10354 10358 10362 10364 10366 10370 10374 10378 10382 10386 10390 10394 10397 10400 10403 10405 10407 10410 10413 10417 10419 10421 10422
10176 10178 10181 10184 10186 10189 10191 10194 10196 10199 10202 10205 10208 10210 10213 10216 10219 10221 10223 10226 10228 10231 10233 10236 10238 10239 10240 10242 10244 10246 10248 10250 10252 10254 10257 10260 10263 10266 10268 10271 10273 10276 10280 10283 10286 10289 10293 10296 10300 10303 10306 10310 10314 10318 10323 10327 10330 10334 10338 10341 10345 10349 10352 10355 10357 10360 10364 10368 10373 10376 10380 10383 10386 10390 10393 10396 10398 10400 10403 10406 10409 10411 10413 10415 10416
10172 10174 10176 10179 10182 10185 10187 10190 10193 10196 10198 10201 10204 10207 10210 10213 10216 10219 10221 10223 10226 10228 10231 10234 10236 10239 10240 10242 10244 10246 10248 10250 10253 10255 10258 10260 10263 10267 10270 10272 10275 10278 10280 10283 10286 10290 10293 10297 10300 10304 10307 10311 10314 10318 10322 10326 10330 10333 10337 10340 10343 10346 10349 10353 10356 10360 10364 10367 10370 10373 10377 10380 10383 10386 10389 10391 10394 10396 10399 10401 10404 10406 10407 10409 10410
10168 10170 10172 10175 10178 10181 10183 10186 10188 10192 10195 10197 10200 10203 10207 10210 10213 10216 10218 10221 10224 10226 10229 10232 10234 10237 10240 10241 10243 10246 10248 10250 10252 10255 10257 10260 10262 10265 10269 10272 10275 10277 10280 10283 10286 10289 10293 10297 10300 10304 10307 10310 10314 10318 10321 10325 10329 10332 10335 10339 10342 10345 10348 10351 10354 10358 10361 10364 10367 10370 10373 10376 10379 10382 10385 10387 10390 10392 10394 10396 10398 10400 10401 10402 10403